Flag for U.S.A. Weather past 2 weeks in Topeka, Kansas, U.S.A.

Now
68 °F

Sunny.


Feels Like: 68 °F
Forecast: 63 / 82 °F
Wind: No wind

Location: Philip Billard Municipal Airport

Current Time: Sep 30, 2014 at 9:11:44 AM

Latest Report: Sep 30, 2014 at 8:53 AM


Visibility: 10 mi

Pressure: 29.89 "Hg

Humidity: 78%

Dew point: 61 °F

Location of TopekaLocation

Historic Weather in Topeka — Graph

°F

Topeka temperature yesterday

Maximum temperature yesterday: 87 °F (at 2:53 PM)
Minimum temperature yesterday: 55 °F (at 6:00 AM)
Average temperature yesterday: 70 °F

Past Weeks' High & Low Weather Summary

 TemperatureHumidityPressure
High88 °F (Sep 20, 2:53 PM)100% (Sep 17, 7:53 AM)30.32 "Hg (Sep 17, 7:53 AM)
Low45 °F (Sep 16, 5:57 AM)32% (Sep 21, 1:53 PM)29.86 "Hg (Sep 17, 5:53 PM)
Average68 °F76%30.08 "Hg
* Reported Sep 15 7:53 AM — Sep 30 7:53 AM, Topeka, Weather by CustomWeather, © 2014

Note: Actual official high and low records may vary slightly from our data, if they occured in-between our weather recording intervals... More about our weather records

Advertising

Topeka weather history for previous 24 hours

 ConditionsComfort  
Time TempWeatherWind HumidityBarometerVisibility
7:53 AM
Sep 30
62 °FClear.No wind90%29.89 "Hg10 mi
6:53 AM61 °FClear.No wind97%29.89 "Hg10 mi
5:53 AM62 °FClear.No wind90%29.89 "Hg10 mi
4:53 AM63 °FClear.3 mph90%29.88 "Hg10 mi
3:53 AM63 °FClear.5 mph90%29.89 "Hg10 mi
2:53 AM64 °FClear.No wind87%29.92 "Hg10 mi
1:53 AM65 °FClear.No wind87%29.93 "Hg10 mi
12:53 AM67 °FClear.3 mph81%29.93 "Hg10 mi
11:53 PM
Sep 29
67 °FClear.No wind87%29.93 "Hg10 mi
10:53 PM68 °FPassing clouds.No wind82%29.92 "Hg10 mi
9:53 PM69 °FClear.No wind79%29.92 "Hg10 mi
8:53 PM70 °FClear.5 mph73%29.92 "Hg10 mi
7:53 PM75 °FScattered clouds.3 mph60%29.92 "Hg10 mi
6:53 PM77 °FSunny.6 mph56%29.93 "Hg10 mi
5:53 PM83 °FPassing clouds.7 mph43%29.93 "Hg10 mi
4:53 PM87 °FSunny.3 mph35%29.93 "Hg10 mi
3:53 PM86 °FSunny.7 mph37%29.95 "Hg10 mi
2:53 PM87 °FSunny.5 mph36%29.97 "Hg10 mi
1:53 PM85 °FSunny.No wind42%30.00 "Hg10 mi
12:53 PM83 °FSunny.7 mph50%30.03 "Hg10 mi
11:53 AM84 °FPassing clouds.3 mph49%30.06 "Hg10 mi
10:53 AM77 °FScattered clouds.3 mph60%30.07 "Hg10 mi
9:53 AM69 °FScattered clouds.No wind76%30.08 "Hg10 mi
Weather by CustomWeather, © 2014

See weather overviewHow to use our weather pages